Regional Weather Roundup
Issued by NWS

Home | Current Version | Previous Version | Graphics & Text | Print | Product List | Glossary On
Versions: 1 2 3 4 5 6 7 8 9 10 11 12 13 14 15 16 17 18 19 20 21 22 23 24 25 26 27 28 29 30 31 32 33 34 35 36 37 38 39 40 41 42 43 44 45 46 47 48 49 50
000
ASUS43 KLMK 300510
RWRKY
KENTUCKY REGIONAL WEATHER ROUNDUP
NATIONAL WEATHER SERVICE LOUISVILLE KY
1200 AM EST FRI JAN 30 2015

NOTE "FAIR" INDICATES FEW OR NO CLOUDS BELOW 12,000 FEET
WITH NO SIGNIFICANT WEATHER AND/OR OBSTRUCTIONS TO VISIBILITY.

KYZ001>023-026-027-061>063-070>075-300600-
WESTERN AND SOUTH CENTRAL KENTUCKY

CITY           SKY/WX    TMP DP  RH WIND       PRES   REMARKS
PADUCAH        CLOUDY    39  29  67 N17       30.38R WCI  30
HENDERSON      CLOUDY    36  28  75 NW17      30.36R WCI  25
OWENSBORO      MOCLDY    37  33  85 NW14      30.35R WCI  28
HOPKINSVILLE   DRIZZLE   37  32  81 NW10      30.35R WCI  30
BOWLING GREEN  CLOUDY    37  33  85 NW5       30.33R WCI  33
GLASGOW        CLOUDY    37  32  82 NW10      30.30R WCI  29
$$

KYZ024-025-028>034-038-045-046-053-300600-
NORTH CENTRAL KENTUCKY

CITY           SKY/WX    TMP DP  RH WIND       PRES   REMARKS
LOUISVILLE/SDF DRIZZLE   36  31  82 W9        30.28R WCI  29
LOUISVILLE/LOU CLOUDY    36  30  79 W10       30.28R WCI  28
FORT KNOX      CLOUDY    36  27  70 NW8       30.26S WCI  29
$$

KYZ035>037-039>044-047>052-055>060-089>105-300600-
NORTHEAST KENTUCKY

CITY           SKY/WX    TMP DP  RH WIND       PRES   REMARKS
LEXINGTON      CLOUDY    33  30  88 NW9       30.23R WCI  25
COVINGTON      CLOUDY    34  28  79 W15       30.20R WCI  24
FRANKFORT      CLOUDY    34  29  82 W7        30.23R WCI  28
$$

KYZ054-064>069-076>088-106>120-300600-
SOUTHEAST KENTUCKY

CITY           SKY/WX    TMP DP  RH WIND       PRES   REMARKS
JACKSON        CLOUDY    33  30  88 W12G18    30.17R WCI  24
LONDON         CLOUDY    35  28  75 NW13      30.21R WCI  26
SOMERSET       CLOUDY    34  28  80 NW14G20   30.26R WCI  24
MIDDLESBORO    CLOUDY    38  31  75 NW9G17    30.19S WCI  32
MONTICELLO     CLOUDY    37  30  76 NW15      30.29R WCI  28
$$




USA.gov is the U.S. government's official web portal to all federal, state and local government web resources and services.